Tracking 23764 objects as of 17-Oct-2021
HD Live streaming from Space Station
objects crossing your sky now

STARLINK-3045

Track STARLINK-3045 now!
10-day predictions
STARLINK-3045 is classified as:


NORAD ID: 49173
Int'l Code: 2021-082AV
Perigee: 364.3 km
Apogee: 369.2 km
Inclination: 70.0 °
Period: 91.7 minutes
Semi major axis: 6737 km
RCS: Unknown
Launch date: September 14, 2021
Source: United States (US)
Launch site: AIR FORCE WESTERN TEST RANGE (AFWTR)
aabbcc
Your satellite tracking list
Your tracking list is empty




NASA's NSSDC Master Catalog

Two Line Element Set (TLE):
1 49173U 21082AV  21290.58334491  .00022663  00000-0  19109-3 0  9990
2 49173  70.0006  32.4399 0003685 290.3118  70.4726 15.69750583  5364
Source of the keplerian elements: AFSPC